Weather History for Millington, TN

Change the Weather History Date:

Sunday, December 2, 2012

  Actual Average Record
Temperature  
Mean Temperature 66 °F -  
Max Temperature 69 °F 55 °F 73 °F (1998)
Min Temperature 62 °F 38 °F 19 °F (2006)
Growing Degree Days 16 (Base 50)    
Moisture  
Dew Point 59 °F    
Average Humidity 81    
Maximum Humidity 94    
Minimum Humidity 68    
Precipitation  
Precipitation 0.00 in - - ()
Sea Level Pressure  
Sea Level Pressure 30.15 in    
Wind  
Wind Speed 8 mph (SSE)    
Max Wind Speed 12 mph    
Max Gust Speed -    
Visibility 10 miles    
Events      
Averages and records for this station are not official NWS values.
T = Trace of Precipitation, MM = Missing Value Source: NWS Daily Summary

Daily Weather History Graph

Daily Weather History Graph

Search for Another Location

Airport:

Trip Planner

Search our weather history database for the weather conditions in past years. The results will help you decide how hot, cold, wet, or windy it might be!

Date:

Astronomy

Dec. 02, 2012 Rise Set
Actual Time 6:51 AM CST 4:46 PM CST
Civil Twilight 6:23 AM CST 5:14 PM CST
Nautical Twilight 5:51 AM CST 5:46 PM CST
Astronomical Twilight 5:21 AM CST 6:16 PM CST
Moon 8:30 PM CST (12/2) 9:44 AM CST (12/2)
Length of Visible Light 10h 51m
Length of Day
9h 55m
Waning Gibbous, 85% of the Moon is Illuminated
Dec 2
Waning Gibbous
Dec 6
Last Quarter
Dec 13
New
Dec 19
First Quarter
Dec 28
Full

Hourly Weather History & Observations

Time (CST) Temp. Dew Point Humidity Pressure Visibility Wind Dir Wind Speed Gust Speed Precip Events Conditions
12:55 AM 62.6 °F 51.8 °F 68% 30.15 in 10.0 mi SSE 6.9 mph - N/A   Mostly Cloudy
1:15 AM 62.6 °F 51.8 °F 68% 30.14 in 10.0 mi SSE 9.2 mph - N/A   Mostly Cloudy
1:35 AM 62.6 °F 53.6 °F 72% 30.14 in 10.0 mi SSE 8.1 mph - N/A   Mostly Cloudy
1:55 AM 62.6 °F 53.6 °F 72% 30.15 in 10.0 mi SSE 6.9 mph - N/A   Overcast
2:15 AM 62.6 °F 53.6 °F 72% 30.15 in 10.0 mi SSE 6.9 mph - N/A   Overcast
2:35 AM 62.6 °F 55.4 °F 77% 30.14 in 10.0 mi SSE 10.4 mph - N/A   Mostly Cloudy
2:55 AM 62.6 °F 55.4 °F 77% 30.15 in 10.0 mi South 8.1 mph - N/A   Overcast
3:55 AM 62.6 °F 57.2 °F 82% 30.15 in 10.0 mi South 8.1 mph - N/A   Overcast
4:55 AM 62.6 °F 57.2 °F 82% 30.15 in 10.0 mi Variable 5.8 mph - N/A   Mostly Cloudy
5:55 AM 64.4 °F 60.8 °F 88% 30.16 in 10.0 mi South 9.2 mph - N/A   Overcast
6:55 AM 64.4 °F 60.8 °F 88% 30.17 in 10.0 mi South 10.4 mph - N/A   Overcast
7:55 AM 64.4 °F 60.8 °F 88% 30.19 in 10.0 mi SSW 6.9 mph - N/A   Overcast
8:55 AM 64.4 °F 60.8 °F 88% 30.21 in 10.0 mi South 10.4 mph - N/A   Overcast
9:55 AM 66.2 °F 60.8 °F 83% 30.19 in 10.0 mi South 11.5 mph - N/A   Overcast
10:55 AM 66.2 °F 60.8 °F 83% 30.19 in 10.0 mi South 8.1 mph - N/A   Overcast
11:55 AM 69.8 °F 60.8 °F 73% 30.16 in 10.0 mi South 9.2 mph - N/A   Mostly Cloudy
12:55 PM 69.8 °F 62.6 °F 78% 30.15 in 10.0 mi South 8.1 mph - N/A   Mostly Cloudy
1:55 PM 69.8 °F 62.6 °F 78% 30.12 in 10.0 mi South 9.2 mph - N/A   Mostly Cloudy
2:55 PM 69.8 °F 62.6 °F 78% 30.12 in 10.0 mi SSE 10.4 mph - N/A   Overcast
3:55 PM 69.8 °F 62.6 °F 78% 30.12 in 10.0 mi SSE 6.9 mph - N/A   Overcast
4:55 PM 68.0 °F 62.6 °F 83% 30.12 in 10.0 mi SSE 5.8 mph - N/A   Overcast
5:55 PM 66.2 °F 62.6 °F 88% 30.12 in 10.0 mi SSE 5.8 mph - N/A   Overcast
6:55 PM 66.2 °F 62.6 °F 88% 30.13 in 10.0 mi South 6.9 mph - N/A   Scattered Clouds
7:55 PM 66.2 °F 62.6 °F 88% 30.14 in 10.0 mi SSE 5.8 mph - N/A   Clear
8:55 PM 64.4 °F 60.8 °F 88% 30.13 in 10.0 mi SSE 5.8 mph - N/A   Clear
9:55 PM 64.4 °F 60.8 °F 88% 30.14 in 10.0 mi SSE 4.6 mph - N/A   Clear
10:55 PM 64.4 °F 60.8 °F 88% 30.14 in 10.0 mi SE 5.8 mph - N/A   Mostly Cloudy
11:55 PM 62.6 °F 60.8 °F 94% 30.13 in 10.0 mi SSE 5.8 mph - N/A   Clear